DW4915 Mazarete ES current weather conditions

sailwx.info

Wind from 352

Air temperature 17.8° C
Dewpoint 9.4° C

Last reported at 2016-Jul-23 08:51 UTC.
Time now 2016-Jul-23 09:15 UTC

Location: N 40°58' W 002°11'.
View on Google Maps.

See reports from other nearby stations

  
Tides and Currents Weather Stations Pressure Air Temp Water Temp Dewpoint Dewpoint Depression Visibility Wind Speed Wind Dir Waves Ship Positions
date/time (UTC)wind fromknots sea level pressurealtimeterstation pressurevisibilityair tempwater tempwave heightnotes
2016-Jul-23 08:51 352 17.8
2016-Jul-23 08:46 067 18.3
2016-Jul-23 08:41 077 17.8
2016-Jul-23 08:36 051 18.3
2016-Jul-23 08:31 067 17.8
2016-Jul-23 08:26 075 17.8
2016-Jul-23 08:21 061 17.8
2016-Jul-23 08:16 065 17.2
2016-Jul-23 08:11 065 17.2
2016-Jul-23 08:06 071 17.2
2016-Jul-23 07:56 016 16.7
2016-Jul-23 07:51 055 16.7
2016-Jul-23 07:46 047 16.7
2016-Jul-23 07:41 073 16.1
2016-Jul-23 07:36 027 16.1
2016-Jul-23 07:31 048 16.1
2016-Jul-23 07:26 042 15.6
2016-Jul-23 07:21 044 15.6
2016-Jul-23 07:16 040 15.0
2016-Jul-23 07:11 031 15.0
2016-Jul-23 07:06 034 14.4
2016-Jul-23 07:01 017 14.4
2016-Jul-23 06:56 029 14.4
2016-Jul-23 06:51 042 13.9
2016-Jul-23 06:46 050 13.9
2016-Jul-23 06:41 050 13.9
2016-Jul-23 06:36 050 13.3
2016-Jul-23 06:31 065 13.3
2016-Jul-23 06:26 068 13.3
2016-Jul-23 06:21 070 12.8
2016-Jul-23 06:16 071 12.8
2016-Jul-23 06:11 073 12.2
2016-Jul-23 06:06 073 11.7
2016-Jul-23 06:01 073 11.1
2016-Jul-23 05:56 073 10.6
2016-Jul-23 05:51 073 10.0
2016-Jul-23 05:46 073 10.0
2016-Jul-23 05:41 073 10.0
2016-Jul-23 05:36 073 10.0
2016-Jul-23 05:31 073 10.0
2016-Jul-23 05:26 073 10.0
2016-Jul-23 05:21 073 10.0
2016-Jul-23 05:16 073 10.6
2016-Jul-23 05:11 073 10.6
2016-Jul-23 05:06 073 10.6
2016-Jul-23 05:01 073 10.6
2016-Jul-23 04:56 073 11.1
2016-Jul-23 04:51 073 11.1
2016-Jul-23 04:46 073 11.1
2016-Jul-23 04:41 073 11.1
2016-Jul-23 04:36 073 11.1
2016-Jul-23 04:31 073 11.1
2016-Jul-23 04:26 073 11.1
2016-Jul-23 04:21 075 11.1
2016-Jul-23 04:16 078 11.1
2016-Jul-23 04:11 063 11.1
2016-Jul-23 04:06 069 11.1
2016-Jul-23 04:01 073 11.1
2016-Jul-23 03:56 073 11.1
2016-Jul-23 03:51 073 11.1
2016-Jul-23 03:46 049 11.1
2016-Jul-23 03:41 048 11.1
2016-Jul-23 03:36 048 11.7
2016-Jul-23 03:31 048 11.7
2016-Jul-23 03:26 064 11.7
2016-Jul-23 03:21 076 11.7
2016-Jul-23 03:16 050 11.7
2016-Jul-23 03:11 047 11.7
2016-Jul-23 03:06 056 11.7
2016-Jul-23 03:01 060 11.7
2016-Jul-23 02:56 041 12.2
2016-Jul-23 02:51 041 12.2
2016-Jul-23 02:46 050 12.2
2016-Jul-23 02:41 057 12.2
2016-Jul-23 02:36 054 12.2
2016-Jul-23 02:31 021 12.2
2016-Jul-23 02:26 029 12.2
2016-Jul-23 02:21 077 12.2
2016-Jul-23 02:16 064 12.2
2016-Jul-23 02:11 042 12.2
2016-Jul-23 02:06 056 12.8
2016-Jul-23 02:01 033 12.8
2016-Jul-23 01:56 041 12.8
2016-Jul-23 01:51 036 12.8
2016-Jul-23 01:46 048 12.8
2016-Jul-23 01:41 071 12.8
2016-Jul-23 01:36 085 12.8
2016-Jul-23 01:31 029 12.8
2016-Jul-23 01:26 336 12.8
2016-Jul-23 01:21 337 12.8
2016-Jul-23 01:16 053 12.8
2016-Jul-23 01:11 018 12.8
2016-Jul-23 01:06 019 12.8
2016-Jul-23 01:01 019 12.8
2016-Jul-23 00:56 056 12.8
2016-Jul-23 00:51 035 12.8
2016-Jul-23 00:46 003 12.8
2016-Jul-23 00:41 018 12.8
2016-Jul-23 00:36 044 12.8
2016-Jul-23 00:31 038 12.8
2016-Jul-23 00:26 038 12.8
2016-Jul-23 00:21 021 12.8
2016-Jul-23 00:16 030 12.8
2016-Jul-23 00:11 038 12.8
2016-Jul-23 00:06 055 12.8
2016-Jul-23 00:01 042 13.3
2016-Jul-22 23:56 042 13.3
2016-Jul-22 23:51 041 13.3
2016-Jul-22 23:46 046 13.9
2016-Jul-22 23:41 047 13.9
2016-Jul-22 23:36 038 13.9
2016-Jul-22 23:31 062 13.9
2016-Jul-22 23:26 044 13.9
2016-Jul-22 23:16 030 14.4
2016-Jul-22 23:11 027 14.4
2016-Jul-22 23:06 016 14.4
2016-Jul-22 23:01 080 14.4
2016-Jul-22 22:56 051 14.4
2016-Jul-22 22:51 051 14.4
2016-Jul-22 22:46 040 14.4
2016-Jul-22 22:41 045 14.4
2016-Jul-22 22:36 054 14.4
2016-Jul-22 22:31 060 15.0
2016-Jul-22 22:26 040 15.0
2016-Jul-22 22:21 047 15.0
2016-Jul-22 22:16 048 15.0
2016-Jul-22 22:11 048 15.0
2016-Jul-22 22:06 013 15.0
2016-Jul-22 22:01 009 15.0
2016-Jul-22 21:56 013 15.0
2016-Jul-22 21:51 017 15.0
2016-Jul-22 21:46 066 15.0
2016-Jul-22 21:41 048 15.0
2016-Jul-22 21:36 031 15.0
2016-Jul-22 21:31 054 15.0
2016-Jul-22 21:26 037 15.6
2016-Jul-22 21:21 025 15.6
2016-Jul-22 21:16 072 15.6
2016-Jul-22 21:11 043 15.6
2016-Jul-22 21:06 051 15.6
2016-Jul-22 21:01 051 15.6
2016-Jul-22 20:56 036 15.6
2016-Jul-22 20:51 029 15.6
2016-Jul-22 20:46 046 16.1
2016-Jul-22 20:41 021 16.1
2016-Jul-22 20:36 024 16.1
2016-Jul-22 20:31 025 16.1
2016-Jul-22 20:26 039 16.1
2016-Jul-22 20:21 055 16.7
2016-Jul-22 20:16 039 16.7
2016-Jul-22 20:11 046 16.7
2016-Jul-22 20:06 052 16.7
2016-Jul-22 20:01 037 17.2
2016-Jul-22 19:56 048 17.2
2016-Jul-22 19:51 042 17.2
2016-Jul-22 19:46 029 17.2
2016-Jul-22 19:41 017 17.8
2016-Jul-22 19:36 027 17.8
2016-Jul-22 19:31 007 17.8
2016-Jul-22 19:26 040 18.3
2016-Jul-22 19:21 016 18.3
2016-Jul-22 19:16 016 18.3
2016-Jul-22 19:11 042 18.9
2016-Jul-22 19:06 020 18.9
2016-Jul-22 19:01 006 19.4
2016-Jul-22 18:56 342 19.4
2016-Jul-22 18:51 356 20.0
2016-Jul-22 18:46 352 20.0
2016-Jul-22 18:41 040 20.6
2016-Jul-22 18:36 008 20.6
2016-Jul-22 18:31 021 21.1
2016-Jul-22 18:26 025 21.1
2016-Jul-22 18:21 025 21.1
2016-Jul-22 18:16 345 21.7
2016-Jul-22 18:11 046 22.2
2016-Jul-22 18:06 058 22.2
2016-Jul-22 18:01 034 22.8
2016-Jul-22 17:56 011 23.3
2016-Jul-22 17:51 022 23.3
2016-Jul-22 17:46 031 23.9
2016-Jul-22 17:41 025 23.9
2016-Jul-22 17:36 048 23.9
2016-Jul-22 17:31 029 23.9
2016-Jul-22 17:26 056 23.9
2016-Jul-22 17:21 048 23.3
2016-Jul-22 17:16 356 23.9
2016-Jul-22 17:11 356 23.9
2016-Jul-22 17:06 066 24.4
2016-Jul-22 17:01 351 24.4
2016-Jul-22 16:56 025 23.9
2016-Jul-22 16:51 356 23.9
2016-Jul-22 16:46 018 24.4
2016-Jul-22 16:41 083 24.4
2016-Jul-22 16:36 002 24.4
2016-Jul-22 16:31 054 25.0
2016-Jul-22 16:26 015 25.0
2016-Jul-22 16:21 023 24.4
2016-Jul-22 16:16 002 24.4
2016-Jul-22 16:11 350 23.9
2016-Jul-22 16:06 352 23.3
2016-Jul-22 16:01 350 23.3
2016-Jul-22 15:56 002 23.3
2016-Jul-22 15:51 007 23.9
2016-Jul-22 15:46 349 23.9
2016-Jul-22 15:41 352 24.4
2016-Jul-22 15:36 352 24.4
2016-Jul-22 15:31 352 24.4
2016-Jul-22 15:26 004 25.6
2016-Jul-22 15:21 006 25.6
2016-Jul-22 15:16 008 25.0
2016-Jul-22 15:11 015 25.0
2016-Jul-22 15:06 350 25.6
2016-Jul-22 15:01 026 25.6
2016-Jul-22 14:56 036 25.6
2016-Jul-22 14:51 007 25.6
2016-Jul-22 14:46 351 26.7
2016-Jul-22 14:41 356 27.2
2016-Jul-22 14:36 354 26.7
2016-Jul-22 14:31 038 26.7
2016-Jul-22 14:26 037 26.7
2016-Jul-22 14:21 029 26.1
2016-Jul-22 14:16 355 26.7
2016-Jul-22 14:11 048 26.1
2016-Jul-22 14:06 033 25.6
2016-Jul-22 14:01 032 25.6
2016-Jul-22 13:56 033 25.6
2016-Jul-22 13:51 033 25.6
2016-Jul-22 13:46 039 25.0
2016-Jul-22 13:41 039 24.4
2016-Jul-22 13:36 039 25.0
2016-Jul-22 13:31 038 25.6
2016-Jul-22 13:26 006 25.6
2016-Jul-22 13:21 352 25.6
2016-Jul-22 13:16 348 25.6
2016-Jul-22 13:11 342 25.0
2016-Jul-22 13:06 325 24.4
2016-Jul-22 13:01 331 24.4
2016-Jul-22 12:56 346 23.9
2016-Jul-22 12:51 056 23.3
2016-Jul-22 12:46 055 23.9
2016-Jul-22 12:41 095 23.9
2016-Jul-22 12:36 095 24.4
2016-Jul-22 12:31 088 24.4
2016-Jul-22 12:26 030 24.4
2016-Jul-22 12:21 031 24.4
2016-Jul-22 12:16 039 23.9
2016-Jul-22 12:11 009 23.9
2016-Jul-22 12:06 022 23.9
2016-Jul-22 12:01 353 23.9
2016-Jul-22 11:56 002 23.3
2016-Jul-22 11:51 006 23.3
2016-Jul-22 11:46 021 23.3
2016-Jul-22 11:41 019 23.3
2016-Jul-22 11:36 018 23.9
2016-Jul-22 11:31 044 23.9
2016-Jul-22 11:26 050 23.9
2016-Jul-22 11:21 079 23.3
2016-Jul-22 11:16 061 23.3
2016-Jul-22 11:11 050 22.8
2016-Jul-22 11:06 053 22.8
2016-Jul-22 11:01 352 23.3
2016-Jul-22 10:56 100 23.3
2016-Jul-22 10:51 076 22.8
2016-Jul-22 10:46 084 22.8
2016-Jul-22 10:41 098 22.2
2016-Jul-22 10:36 061 21.7
2016-Jul-22 10:31 038 21.7
2016-Jul-22 10:26 360 21.7
2016-Jul-22 10:21 010 21.7
2016-Jul-22 10:16 035 21.7
2016-Jul-22 10:11 030 21.7
2016-Jul-22 10:06 049 21.7
2016-Jul-22 10:01 046 21.7
2016-Jul-22 09:56 046 21.7
2016-Jul-22 09:51 019 21.1
2016-Jul-22 09:46 021 21.1
2016-Jul-22 09:41 050 21.1
2016-Jul-22 09:36 048 21.1
2016-Jul-22 09:31 056 21.1
2016-Jul-22 09:26 036 21.1
2016-Jul-22 09:21 047 21.1
2016-Jul-22 09:16 057 20.6
2016-Jul-22 09:11 023 20.6
2016-Jul-22 09:06 017 20.6
2016-Jul-22 09:01 044 20.6
2016-Jul-22 08:56 055 20.0
2016-Jul-22 08:51 060 20.0
2016-Jul-22 08:46 067 19.4
2016-Jul-22 08:41 048 19.4
2016-Jul-22 08:36 033 19.4
2016-Jul-22 08:31 023 18.9
2016-Jul-22 08:26 071 18.9
2016-Jul-22 08:21 065 18.3
2016-Jul-22 08:16 037 18.3
2016-Jul-22 08:11 044 17.8
2016-Jul-22 08:06 046 18.3
2016-Jul-22 08:01 044 18.3
2016-Jul-22 07:56 037 18.3
2016-Jul-22 07:51 053 18.3
2016-Jul-22 07:46 067 17.8
2016-Jul-22 07:41 038 17.8
2016-Jul-22 07:36 038 17.8
2016-Jul-22 07:31 039 17.2
2016-Jul-22 07:26 030 17.8
2016-Jul-22 07:21 058 17.2
2016-Jul-22 07:16 050 17.2
2016-Jul-22 07:11 064 17.2
2016-Jul-22 07:06 048 17.2
2016-Jul-22 07:01 049 16.7
2016-Jul-22 06:56 050 16.7
2016-Jul-22 06:51 048 16.7
2016-Jul-22 06:46 042 16.7
2016-Jul-22 06:41 052 16.1
2016-Jul-22 06:36 050 16.1
2016-Jul-22 06:31 055 16.1
2016-Jul-22 06:26 063 16.1
2016-Jul-22 06:21 060 15.6
2016-Jul-22 06:16 060 15.6
2016-Jul-22 06:11 054 15.6
2016-Jul-22 06:06 054 15.6
2016-Jul-22 06:01 063 15.0
2016-Jul-22 05:56 064 15.0
2016-Jul-22 05:51 065 15.0
2016-Jul-22 05:46 064 15.0
2016-Jul-22 05:41 064 15.0
2016-Jul-22 05:36 064 15.0
2016-Jul-22 05:31 065 15.0
2016-Jul-22 05:26 065 15.0
2016-Jul-22 05:21 065 15.0
2016-Jul-22 05:16 065 15.0
2016-Jul-22 05:11 064 14.4
2016-Jul-22 05:06 064 14.4
2016-Jul-22 05:01 064 15.0
2016-Jul-22 04:56 065 15.0
2016-Jul-22 04:51 065 15.0
2016-Jul-22 04:46 063 15.0
2016-Jul-22 04:41 065 15.0
2016-Jul-22 04:36 064 15.0
2016-Jul-22 04:31 065 15.0
2016-Jul-22 04:26 065 15.0
2016-Jul-22 04:21 064 15.0
2016-Jul-22 04:16 065 15.0
2016-Jul-22 04:11 066 15.6
2016-Jul-22 04:06 063 15.6
2016-Jul-22 04:01 064 15.6
2016-Jul-22 03:56 067 15.6
2016-Jul-22 03:51 065 15.6
2016-Jul-22 03:46 065 15.6
2016-Jul-22 03:41 064 15.6
2016-Jul-22 03:36 065 15.6
2016-Jul-22 03:31 068 15.6
2016-Jul-22 03:26 067 15.6
2016-Jul-22 03:21 068 15.6
2016-Jul-22 03:16 068 16.1
2016-Jul-22 03:11 069 16.1
2016-Jul-22 03:06 067 16.1
2016-Jul-22 03:01 067 16.1
2016-Jul-22 02:56 069 16.1
2016-Jul-22 02:51 068 16.1
2016-Jul-22 02:46 067 16.1
2016-Jul-22 02:41 065 16.1
2016-Jul-22 02:36 066 16.7
2016-Jul-22 02:31 066 16.7
2016-Jul-22 02:26 063 16.7
2016-Jul-22 02:21 062 16.7
2016-Jul-22 02:16 061 16.7
2016-Jul-22 02:11 062 17.2
2016-Jul-22 02:06 066 17.2
2016-Jul-22 02:01 067 17.2
2016-Jul-22 01:56 067 17.2
2016-Jul-22 01:51 064 17.2
2016-Jul-22 01:46 063 17.2
2016-Jul-22 01:41 064 17.2
2016-Jul-22 01:36 058 17.2
2016-Jul-22 01:31 060 17.2
2016-Jul-22 01:26 058 17.2
2016-Jul-22 01:21 058 17.8
2016-Jul-22 01:16 062 17.8
2016-Jul-22 01:11 063 17.8
2016-Jul-22 01:06 064 17.8
2016-Jul-22 01:01 067 17.8
2016-Jul-22 00:56 072 17.8
2016-Jul-22 00:51 073 17.8
2016-Jul-22 00:46 068 18.3
2016-Jul-22 00:41 067 18.3
2016-Jul-22 00:36 064 18.3
2016-Jul-22 00:31 068 18.3
2016-Jul-22 00:26 063 18.3
2016-Jul-22 00:21 075 18.3
2016-Jul-22 00:16 072 18.3
2016-Jul-22 00:11 068 18.3
2016-Jul-22 00:06 068 18.3
2016-Jul-22 00:01 068 18.3
2016-Jul-21 23:56 067 18.3
2016-Jul-21 23:51 069 18.9
2016-Jul-21 23:46 071 18.9
2016-Jul-21 23:41 071 18.9
2016-Jul-21 23:36 077 18.9
2016-Jul-21 23:31 076 18.9
2016-Jul-21 23:26 076 18.9
2016-Jul-21 23:21 077 18.9
2016-Jul-21 23:16 079 19.4
2016-Jul-21 23:11 081 19.4
2016-Jul-21 23:06 075 19.4
2016-Jul-21 23:01 076 19.4
2016-Jul-21 22:56 073 20.0
2016-Jul-21 22:51 071 20.0
2016-Jul-21 22:46 073 20.0
2016-Jul-21 22:41 072 20.0
2016-Jul-21 22:36 075 20.0
2016-Jul-21 22:31 077 20.0
2016-Jul-21 22:21 077 20.0
2016-Jul-21 22:16 074 20.0
2016-Jul-21 22:11 075 20.0
2016-Jul-21 22:06 075 20.6
2016-Jul-21 22:01 075 20.6
2016-Jul-21 21:56 075 20.6
2016-Jul-21 21:51 077 21.1
2016-Jul-21 21:46 077 21.1
2016-Jul-21 21:41 085 21.1
2016-Jul-21 21:36 081 21.1
2016-Jul-21 21:31 087 20.6
2016-Jul-21 21:26 075 20.6
2016-Jul-21 21:21 076 20.0
2016-Jul-21 21:16 065 19.4
2016-Jul-21 21:11 062 19.4
2016-Jul-21 21:06 061 18.9
2016-Jul-21 21:01 061 17.8
2016-Jul-21 20:56 048 17.2
2016-Jul-21 20:51 269 16.7
2016-Jul-21 20:46 269 16.7
2016-Jul-21 20:41 269 16.7
2016-Jul-21 20:36 269 16.7
2016-Jul-21 20:31 269 17.2
2016-Jul-21 20:26 269 17.2
2016-Jul-21 20:21 269 17.2
2016-Jul-21 20:16 269 17.8
2016-Jul-21 20:11 269 17.8
2016-Jul-21 20:06 269 18.3
2016-Jul-21 20:01 269 18.9
2016-Jul-21 19:56 269 18.9
2016-Jul-21 19:51 269 19.4
2016-Jul-21 19:46 269 19.4
2016-Jul-21 19:41 268 20.0
2016-Jul-21 19:36 269 20.6
2016-Jul-21 19:31 269 21.1
2016-Jul-21 19:26 269 21.7
2016-Jul-21 19:21 269 22.2
2016-Jul-21 19:16 269 22.8
2016-Jul-21 19:11 269 23.3
2016-Jul-21 19:06 269 23.3
2016-Jul-21 19:01 269 24.4
2016-Jul-21 18:56 269 25.0
2016-Jul-21 18:51 269 25.0
2016-Jul-21 18:46 269 25.6
2016-Jul-21 18:41 269 25.6
2016-Jul-21 18:36 269 26.1
2016-Jul-21 18:31 269 26.7
2016-Jul-21 18:26 269 26.7
2016-Jul-21 18:21 269 26.7
2016-Jul-21 18:16 269 27.2
2016-Jul-21 18:11 269 27.2
2016-Jul-21 18:06 269 27.8
2016-Jul-21 18:01 269 28.3
2016-Jul-21 17:56 269 28.3
2016-Jul-21 17:51 269 28.9
2016-Jul-21 17:46 269 29.4
2016-Jul-21 17:36 277 29.4
2016-Jul-21 17:31 270 29.4
2016-Jul-21 17:26 254 30.0
2016-Jul-21 17:21 261 30.0
2016-Jul-21 17:16 261 30.0
2016-Jul-21 17:11 285 30.0
2016-Jul-21 17:06 281 30.0
2016-Jul-21 17:01 273 30.0
2016-Jul-21 16:56 270 30.0
2016-Jul-21 16:51 247 30.0
2016-Jul-21 16:46 238 29.4
2016-Jul-21 16:36 225 29.4
2016-Jul-21 16:31 226 29.4
2016-Jul-21 16:26 195 29.4
2016-Jul-21 16:21 216 29.4
2016-Jul-21 16:16 256 29.4
2016-Jul-21 16:11 242 30.0
2016-Jul-21 16:06 272 30.0
2016-Jul-21 16:01 280 30.0
2016-Jul-21 15:56 277 30.0
2016-Jul-21 15:51 274 30.0
2016-Jul-21 15:46 272 30.0
2016-Jul-21 15:41 262 30.0
2016-Jul-21 15:36 254 30.0
2016-Jul-21 15:31 200 30.0
2016-Jul-21 15:26 256 30.6
2016-Jul-21 15:21 261 30.0
2016-Jul-21 15:16 279 30.0
2016-Jul-21 15:11 273 30.0
2016-Jul-21 15:06 225 30.0
2016-Jul-21 15:01 202 30.0
2016-Jul-21 14:56 240 30.0
2016-Jul-21 14:51 248 30.0
2016-Jul-21 14:46 252 30.0
2016-Jul-21 14:41 250 30.0
2016-Jul-21 14:36 251 30.0
2016-Jul-21 14:31 277 30.0
2016-Jul-21 14:26 248 30.0
2016-Jul-21 14:21 271 30.0
2016-Jul-21 14:16 265 30.0
2016-Jul-21 14:11 177 30.0
2016-Jul-21 14:06 265 29.4
2016-Jul-21 14:01 236 29.4
2016-Jul-21 13:56 250 29.4
2016-Jul-21 13:51 245 29.4
2016-Jul-21 13:46 196 29.4
2016-Jul-21 13:41 236 29.4
2016-Jul-21 13:36 206 30.0
2016-Jul-21 13:31 243 30.6
2016-Jul-21 13:26 248 30.0
2016-Jul-21 13:21 271 30.0
2016-Jul-21 13:16 244 29.4
2016-Jul-21 13:11 252 29.4
2016-Jul-21 13:06 231 29.4
2016-Jul-21 13:01 189 29.4
2016-Jul-21 12:56 258 29.4
2016-Jul-21 12:51 169 29.4
2016-Jul-21 12:46 199 29.4
2016-Jul-21 12:36 279 29.4
2016-Jul-21 12:31 256 28.9
2016-Jul-21 12:26 265 28.9
2016-Jul-21 12:21 226 28.9
2016-Jul-21 12:16 278 28.9
2016-Jul-21 12:11 273 28.9
2016-Jul-21 12:06 256 28.3
2016-Jul-21 12:01 243 28.3
2016-Jul-21 11:56 232 28.3
2016-Jul-21 11:51 254 28.3
2016-Jul-21 11:46 234 28.3
2016-Jul-21 11:41 221 28.3
2016-Jul-21 11:36 257 28.3
2016-Jul-21 11:31 240 28.3
2016-Jul-21 11:26 294 28.9
2016-Jul-21 11:21 202 28.9
2016-Jul-21 11:16 278 28.9
2016-Jul-21 11:11 250 28.9
2016-Jul-21 11:06 256 28.9
2016-Jul-21 11:01 262 28.3
2016-Jul-21 10:56 246 28.3
2016-Jul-21 10:51 235 28.3
2016-Jul-21 10:46 221 28.3
2016-Jul-21 10:41 168 28.3
2016-Jul-21 10:36 249 28.3
2016-Jul-21 10:31 265 27.8
2016-Jul-21 10:26 190 27.8
2016-Jul-21 10:21 231 27.8
2016-Jul-21 10:16 254 27.8
2016-Jul-21 10:11 226 27.8
2016-Jul-21 10:06 244 27.8
2016-Jul-21 10:01 244 27.8
2016-Jul-21 09:56 249 27.2
2016-Jul-21 09:51 262 27.2
2016-Jul-21 09:46 252 27.2
2016-Jul-21 09:41 193 27.2
2016-Jul-21 09:36 216 26.7
2016-Jul-21 09:31 277 26.7
2016-Jul-21 09:26 237 26.7
2016-Jul-21 09:21 194 26.7
2016-Jul-21 09:16 197 26.1
2016-Jul-21 09:11 211 26.1
2016-Jul-21 09:06 236 25.6
2016-Jul-21 09:01 242 25.6